• In Germany
  • List of Countries
  • For 7 days
  • Water Temperature
  • Satellite Maps
  • Weather Map
  • Weather Widgets
  • user-avatar
    Login

    Hourly Weather Kabul

    Today, 18 February, Sunday

    Time Temperature Precipitation Wind Pressure Humidity
    00:00 +1°C° 0 mm 4 mps 607 mmHg 32%
    01:00 +1°C° 0 mm 3 mps 607 mmHg 32%
    02:00 +1°C° 0 mm 3 mps 607 mmHg 32%
    03:00 +1°C° 0 mm 3 mps 607 mmHg 31%
    04:00 +1°C° 0 mm 3 mps 606 mmHg 31%
    05:00 +1°C° 0 mm 3 mps 606 mmHg 30%
    06:00 +1°C° 0 mm 3 mps 606 mmHg 30%
    07:00 +1°C° 0 mm 3 mps 606 mmHg 30%
    08:00 +2°C° 0 mm 3 mps 606 mmHg 30%
    09:00 +4°C° 0 mm 3 mps 607 mmHg 29%
    10:00 +7°C° 0 mm 2 mps 607 mmHg 28%
    11:00 +9°C° 0 mm 2 mps 608 mmHg 27%
    12:00 +10°C° 0 mm 2 mps 608 mmHg 28%
    13:00 +10°C° 0 mm 2 mps 608 mmHg 29%
    14:00 +12°C° 0 mm 2 mps 608 mmHg 30%
    15:00 +12°C° 0 mm 2 mps 608 mmHg 32%
    16:00 +12°C° 0 mm 2 mps 607 mmHg 34%
    17:00 +10°C° 0 mm 2 mps 607 mmHg 36%
    18:00 +9°C° 0 mm 2 mps 607 mmHg 39%
    19:00 +8°C° 0 mm 2 mps 607 mmHg 42%
    20:00 +6°C° 0 mm 2 mps 607 mmHg 45%
    21:00 +6°C° 0 mm 2 mps 607 mmHg 46%
    22:00 +5°C° 0 mm 2 mps 607 mmHg 48%
    23:00 +5°C° 0 mm 2 mps 607 mmHg 49%

    Tomorrow, 19 February, Monday

    Time Temperature Precipitation Wind Pressure Humidity
    00:00 +5°C° 0 mm 2 mps 607 mmHg 50%
    01:00 +4°C° 0 mm 2 mps 607 mmHg 50%
    02:00 +4°C° 0 mm 2 mps 607 mmHg 51%
    03:00 +4°C° 0 mm 2 mps 606 mmHg 52%
    04:00 +4°C° 0 mm 2 mps 606 mmHg 52%
    05:00 +4°C° 0 mm 1 mps 606 mmHg 53%
    06:00 +5°C° 0 mm 1 mps 606 mmHg 52%
    07:00 +5°C° 0 mm 1 mps 606 mmHg 52%
    08:00 +6°C° 0 mm 1 mps 607 mmHg 51%
    09:00 +7°C° 0 mm 1 mps 607 mmHg 49%
    10:00 +9°C° 0 mm 1 mps 608 mmHg 47%
    11:00 +9°C° 0 mm 0 mps 609 mmHg 45%
    12:00 +11°C° 0 mm 1 mps 608 mmHg 45%
    13:00 +11°C° 0 mm 1 mps 608 mmHg 44%
    14:00 +12°C° 0 mm 1 mps 608 mmHg 44%
    15:00 +12°C° 0 mm 1 mps 608 mmHg 44%
    16:00 +12°C° 0 mm 1 mps 608 mmHg 43%
    17:00 +11°C° 0 mm 1 mps 608 mmHg 43%
    18:00 +10°C° 0 mm 1 mps 608 mmHg 45%
    19:00 +9°C° 0 mm 1 mps 608 mmHg 47%
    20:00 +8°C° 0 mm 1 mps 608 mmHg 50%
    21:00 +8°C° 0 mm 1 mps 608 mmHg 51%
    22:00 +7°C° 0 mm 1 mps 607 mmHg 52%
    23:00 +7°C° 0 mm 1 mps 607 mmHg 53%

    Day after tomorrow, 20 February, Tuesday

    Time Temperature Precipitation Wind Pressure Humidity
    00:00 +6°C° 0 mm 1 mps 607 mmHg 53%
    01:00 +6°C° 0 mm 1 mps 607 mmHg 54%
    02:00 +6°C° 0 mm 1 mps 607 mmHg 54%
    03:00 +6°C° 0 mm 1 mps 606 mmHg 55%
    04:00 +5°C° 0 mm 1 mps 606 mmHg 56%
    05:00 +5°C° 0 mm 1 mps 605 mmHg 57%
    06:00 +5°C° 0 mm 1 mps 606 mmHg 56%
    07:00 +6°C° 0 mm 1 mps 606 mmHg 56%
    08:00 +6°C° 0 mm 1 mps 607 mmHg 55%
    09:00 +7°C° 0.1 mm 1 mps 607 mmHg 54%
    10:00 +7°C° 0.1 mm 2 mps 607 mmHg 53%
    11:00 +8°C° 0.1 mm 2 mps 608 mmHg 52%
    12:00 +8°C° 0.3 mm 2 mps 607 mmHg 54%
    13:00 +8°C° 0.3 mm 2 mps 607 mmHg 57%
    14:00 +8°C° 0.3 mm 2 mps 606 mmHg 59%
    15:00 +7°C° 0.3 mm 2 mps 606 mmHg 61%
    16:00 +7°C° 0.3 mm 2 mps 606 mmHg 63%
    17:00 +7°C° 0.3 mm 2 mps 605 mmHg 65%
    18:00 +6°C° 0.3 mm 2 mps 606 mmHg 67%
    19:00 +6°C° 0.3 mm 2 mps 606 mmHg 70%
    20:00 +5°C° 0.3 mm 2 mps 606 mmHg 72%
    21:00 +5°C° 0.3 mm 2 mps 606 mmHg 74%
    22:00 +4°C° 0.3 mm 2 mps 606 mmHg 76%
    23:00 +4°C° 0.3 mm 2 mps 606 mmHg 78%

    21 February, Wednesday

    Time Temperature Precipitation Wind Pressure Humidity
    00:00 +4°C° 0 mm 2 mps 606 mmHg 78%
    01:00 +3°C° 0 mm 2 mps 606 mmHg 78%
    02:00 +3°C° 0 mm 2 mps 606 mmHg 78%
    03:00 +4°C° 0 mm 1 mps 606 mmHg 77%
    04:00 +4°C° 0 mm 1 mps 605 mmHg 76%
    05:00 +4°C° 0 mm 1 mps 605 mmHg 75%
    06:00 +4°C° 0 mm 1 mps 606 mmHg 74%
    07:00 +4°C° 0 mm 1 mps 606 mmHg 72%
    08:00 +4°C° 0 mm 1 mps 607 mmHg 70%
    09:00 +5°C° 0 mm 1 mps 607 mmHg 65%
    10:00 +6°C° 0 mm 1 mps 608 mmHg 60%
    11:00 +8°C° 0 mm 1 mps 608 mmHg 56%
    12:00 +8°C° 0 mm 1 mps 608 mmHg 53%
    13:00 +9°C° 0 mm 1 mps 607 mmHg 51%
    14:00 +10°C° 0 mm 1 mps 607 mmHg 48%
    15:00 +10°C° 0 mm 1 mps 607 mmHg 47%
    16:00 +10°C° 0 mm 1 mps 607 mmHg 46%
    17:00 +10°C° 0 mm 1 mps 607 mmHg 44%
    18:00 +9°C° 0 mm 1 mps 607 mmHg 47%
    19:00 +8°C° 0 mm 1 mps 607 mmHg 49%
    20:00 +6°C° 0 mm 1 mps 607 mmHg 52%
    21:00 +6°C° 0 mm 1 mps 607 mmHg 51%
    22:00 +6°C° 0 mm 1 mps 607 mmHg 51%
    23:00 +5°C° 0 mm 1 mps 607 mmHg 51%

    22 February, Thursday

    Time Temperature Precipitation Wind Pressure Humidity
    00:00 +5°C° 0 mm 1 mps 607 mmHg 51%
    01:00 +4°C° 0 mm 1 mps 607 mmHg 50%
    02:00 +4°C° 0 mm 1 mps 606 mmHg 50%
    03:00 +4°C° 0 mm 1 mps 606 mmHg 49%
    04:00 +4°C° 0 mm 1 mps 606 mmHg 49%
    05:00 +4°C° 0 mm 1 mps 605 mmHg 48%
    06:00 +4°C° 0 mm 1 mps 606 mmHg 46%
    07:00 +4°C° 0 mm 1 mps 606 mmHg 45%
    08:00 +4°C° 0 mm 1 mps 606 mmHg 44%
    09:00 +6°C° 0 mm 1 mps 607 mmHg 41%
    10:00 +7°C° 0 mm 1 mps 607 mmHg 37%
    11:00 +9°C° 0 mm 1 mps 607 mmHg 34%
    12:00 +9°C° 0 mm 1 mps 607 mmHg 34%
    13:00 +10°C° 0 mm 1 mps 607 mmHg 34%
    14:00 +11°C° 0 mm 1 mps 607 mmHg 34%
    15:00 +10°C° 0 mm 1 mps 606 mmHg 34%
    16:00 +10°C° 0 mm 1 mps 606 mmHg 34%
    17:00 +10°C° 0 mm 1 mps 606 mmHg 34%
    18:00 +9°C° 0 mm 1 mps 606 mmHg 36%
    19:00 +9°C° 0 mm 1 mps 607 mmHg 37%
    20:00 +8°C° 0 mm 1 mps 607 mmHg 39%
    21:00 +7°C° 0 mm 1 mps 607 mmHg 40%
    22:00 +7°C° 0 mm 1 mps 607 mmHg 42%
    23:00 +5°C° 0 mm 2 mps 607 mmHg 43%

    23 February, Friday

    Time Temperature Precipitation Wind Pressure Humidity
    00:00 +6°C° 0 mm 1 mps 606 mmHg 44%
    01:00 +5°C° 0 mm 1 mps 606 mmHg 46%
    02:00 +4°C° 0 mm 1 mps 606 mmHg 48%
    03:00 +4°C° 0 mm 1 mps 606 mmHg 49%
    04:00 +4°C° 0 mm 1 mps 605 mmHg 50%
    05:00 +3°C° 0 mm 1 mps 605 mmHg 51%
    06:00 +4°C° 0 mm 1 mps 606 mmHg 50%
    07:00 +4°C° 0 mm 1 mps 606 mmHg 50%
    08:00 +4°C° 0 mm 1 mps 607 mmHg 49%
    09:00 +6°C° 0 mm 1 mps 607 mmHg 47%
    10:00 +7°C° 0 mm 1 mps 607 mmHg 44%
    11:00 +8°C° 0 mm 1 mps 608 mmHg 41%
    12:00 +9°C° 0 mm 1 mps 608 mmHg 41%
    13:00 +10°C° 0 mm 1 mps 607 mmHg 41%
    14:00 +10°C° 0 mm 1 mps 607 mmHg 41%
    15:00 +10°C° 0 mm 1 mps 607 mmHg 42%
    16:00 +9°C° 0 mm 2 mps 607 mmHg 42%
    17:00 +9°C° 0 mm 2 mps 607 mmHg 43%
    18:00 +8°C° 0 mm 2 mps 607 mmHg 44%
    19:00 +7°C° 0 mm 2 mps 607 mmHg 46%
    20:00 +6°C° 0 mm 2 mps 607 mmHg 48%
    21:00 +6°C° 0 mm 2 mps 607 mmHg 49%
    22:00 +6°C° 0 mm 2 mps 607 mmHg 50%
    23:00 +6°C° 0 mm 2 mps 607 mmHg 51%
    Show more